STARLINK-31919 (59880 NORAD) Tracking and Keplerian Element Data

This shows tracking and keplerian element data for the satellite.

Feedback or suggestion? Click here.




ElementValue
Catalog59880
NameSTARLINK-31919
Epoch Orbit359
Epoch Day160.16667824
Epoch Year2024
RAAN327.9635
Inclination43.0015
Eccentricity0.0001196
Argument of Perigee265.1384
Mean Anonmoly229.8951
Mean Motion15.73470087
Decay Rate-0.01570223
L11 59880U 24098Y 24160.16667824 -.01570223 00000+0 -12268-1 0 9997
L22 59880 43.0015 327.9635 0001196 265.1384 229.8951 15.73470087 3591



Live tracking and technical data element details for STARLINK-31919 (NORAD 59880). STARLINK-31919 can be tracked NOW for your location showing map with azimuth and elevation plus other details from your city location.







IsCatalogInMostPopularTable: catalog: 59880, numindb: 8
Update: records affected: 1



GetName: 59880 STARLINK-31919

Hit Count: updated at: Thu, 25 Jul 2024 00:35:28 GMT